Ontario, OR

1:58 AM MDT on October 14, 2019 (GMT -0600)
Ontario Municipal

Weather History for KONO - September, 2019

Change the Weather History Date:

Saturday, September 21, 2019

  Actual Average Record
Temperature  
Mean Temperature 61 °F 61 °F  
Max Temperature 75 °F 79 °F 97 °F (1966)
Min Temperature 47 °F 43 °F 25 °F (1983)
Degree Days  
Heating Degree Days 4 5  
Month to date heating degree days 29 57  
Since 1 July heating degree days 29 73  
Cooling Degree Days 0 1  
Month to date cooling degree days 109 52  
Year to date cooling degree days 1143 845  
Growing Degree Days 10 (Base 50)    
Moisture  
Dew Point 44 °F    
Average Humidity 57    
Maximum Humidity 86    
Minimum Humidity 27    
Precipitation  
Precipitation 0.00 in 0.02 in 0.10 in (1945)
Month to date precipitation 0.99 0.26  
Year to date precipitation 10.87 6.50  
Sea Level Pressure  
Sea Level Pressure 30.10 in    
Wind  
Wind Speed 4 mph (WSW)    
Max Wind Speed 12 mph    
Max Gust Speed 15 mph    
Visibility 10 miles    
Events      
T = Trace of Precipitation, MM = Missing Value Source: NWS Daily Summary

Daily Weather History Graph

Daily Weather History Graph

Search for Another Location

Airport or City:

Astronomy

Sep. 21, 2019 Rise Set
Actual Time 7:33 AM MDT 7:47 PM MDT
Civil Twilight 7:05 AM MDT 8:16 PM MDT
Nautical Twilight 6:31 AM MDT 8:50 PM MDT
Astronomical Twilight 5:56 AM MDT 9:24 PM MDT
Moon No Moon Rise 2:58 PM MDT (9/21)
Length of Visible Light 13h 11m
Length of Day
12h 13m
Waning Gibbous, 54% of the Moon is Illuminated
Sep 21
Waning Gibbous
Sep 21
Last Quarter
Sep 28
New
Oct 5
First Quarter
Oct 13
Full

Hourly Weather History & Observations

Time (MDT) Temp. Dew Point Humidity Pressure Visibility Wind Dir Wind Speed Gust Speed Precip Events Conditions
12:53 AM 55.0 °F 44.1 °F 67% 30.08 in 10.0 mi West 5.8 mph - N/A   Clear
1:53 AM 53.1 °F 44.1 °F 71% 30.10 in 10.0 mi West 9.2 mph - N/A   Partly Cloudy
2:53 AM 51.1 °F 44.1 °F 77% 30.11 in 10.0 mi West 6.9 mph - N/A   Clear
3:53 AM 50.0 °F 43.0 °F 77% 30.11 in 10.0 mi WSW 10.4 mph - N/A   Clear
4:53 AM 50.0 °F 43.0 °F 77% 30.12 in 10.0 mi West 9.2 mph - N/A   Clear
5:53 AM 48.0 °F 43.0 °F 83% 30.13 in 10.0 mi West 8.1 mph - N/A   Clear
6:53 AM 48.0 °F 42.1 °F 80% 30.15 in 10.0 mi West 8.1 mph - N/A   Clear
7:53 AM 46.9 °F 42.1 °F 83% 30.17 in 10.0 mi West 5.8 mph - N/A   Unknown
8:53 AM 53.1 °F 44.1 °F 71% 30.17 in 10.0 mi West 6.9 mph - N/A   Clear
9:53 AM 57.9 °F 45.0 °F 62% 30.17 in 10.0 mi West 9.2 mph - N/A   Clear
10:53 AM 62.1 °F 46.0 °F 56% 30.17 in 10.0 mi SW 6.9 mph - N/A   Clear
11:53 AM 64.9 °F 46.0 °F 50% 30.15 in 10.0 mi Calm Calm - N/A   Clear
12:53 PM 68.0 °F 46.0 °F 45% 30.14 in 10.0 mi Calm Calm - N/A   Clear
1:53 PM 71.1 °F 44.1 °F 38% 30.12 in 10.0 mi Variable 3.5 mph - N/A   Clear
2:53 PM 72.0 °F 43.0 °F 35% 30.10 in 10.0 mi SSE 3.5 mph - N/A   Clear
3:53 PM 73.0 °F 37.9 °F 28% 30.08 in 10.0 mi Calm Calm - N/A   Clear
4:53 PM 73.9 °F 39.9 °F 29% 30.06 in 10.0 mi Calm Calm - N/A   Clear
5:53 PM 73.9 °F 42.1 °F 32% 30.05 in 10.0 mi SSE 4.6 mph - N/A   Clear
6:53 PM 73.0 °F 41.0 °F 31% 30.04 in 10.0 mi ESE 4.6 mph - N/A   Clear
7:53 PM 66.9 °F 46.9 °F 49% 30.04 in 10.0 mi Calm Calm - N/A   Clear
8:53 PM 62.1 °F 46.9 °F 58% 30.05 in 10.0 mi Calm Calm - N/A   Clear
9:53 PM 57.9 °F 46.9 °F 67% 30.05 in 10.0 mi Calm Calm - N/A   Clear
10:53 PM 55.9 °F 46.0 °F 69% 30.05 in 10.0 mi Calm Calm - N/A   Clear
11:53 PM 54.0 °F 46.0 °F 75% 30.05 in 10.0 mi Calm Calm - N/A   Clear